SCP
-0 0 0 0 0 0 0 0 0 0 0 0 0 0 0 0 0 0 0 0 0 0 0 0 0 0 0 0 0 0 0 0
0 0 0 0 0 0 0 0 0 0 0 0 0 0 0 0 0 0 0 0 0 0 0 0 0 0 0 0 0 0 0 0
0 0 0 0 0 0 0 0 0 0 0 0 0 0 0 0 0 0 0 0 0 0 0 0 0 0 0 0 0 0 0 0
0 0 0 0 1 1 0 0 0 0 0 0 0 0 0 0 0 0 0 0 0 0 0 0 0 0 0 0 0 0 0 0
0 0 0 0 0 0 0 0 0 0 0 0 0 0 0 0 0 0 0 0 0 0 0 0 0 1 0 0 0 0 0 0
1 1 1 0 0 0 0 0 0 0 0 0 0 0 0 0 0 0 0 0 0 0 0 0 0 0 0 0 1 0 1 1
1 0 0 0 0 0 0 0 0 0 0 0 0 0 0 0 0 0 0 0 0 0 0 0 0 0 0 0 1 0 0 0
1 0 0 0 0 0 0 0 0 0 0 0 0 0 0 0 0 0 0 0 0 0 0 0 0 0 0 0 0 1 1 1
0 0 0 0 0 0 0 1 1 0 0 0 0 0 0 0 0 0 0 0 0 0 0 0 0 0 0 0 0 0 0 1
1 1 0 0 0 0 0 0 0 0 0 0 0 0 0 0 0 0 0 0 0 0 0 0 0 0 0 0 0 0 0 0
1 1 0 0 0 0 0 0 0 0 0 0 0 0 0 0 0 0 0 0 0 0 0 0 0 0 0 0 0 0 0 0
1 1 0 0 0 0 0 0 0 0 0 0 0 0 0 0 0 0 0 0 0 0 0 0 0 0 0 0 0 0 0 0
1 1 0 0 0 0 0 0 0 0 0 0 0 0 0 0 0 0 0 0 0 0 0 0 0 0 0 0 0 0 0 0
1 1 0 0 0 0 0 0 0 0 0 0 0 0 0 0 0 0 0 0 0 0 0 0 0 0 0 0 0 0 0 0
1 0 0 0 0 0 0 0 0 0 0 0 0 0 0 0 0 0 0 0 0 0 0 0 0 0 0 0 0 0 0 0
1 0 0 0 0 0 0 0 0 0 0 0 0 0 0 0 0 0 0 0 0 0 0 0 0 0 0 0 0 0 0 0
0 0 0 0 0 0 0 0 0 0 0 0 0 0 0 0 0 0 0 0 0 0 0 0 0 0 0 0 0 0 0 0
0 0 0 0 0 0 0 0 0 0 0 0 0 0 0 0 0 0 0 0 0 0 0 0 0 0 0 0 0 0 0 0
0 0 0 0 0 0 0 0 0 0 0 0 0 0 0 0 0 0 0 0 0 0 0 0 0 0 0 0 0 0 0 0
0 0 0 0 0 0 0 -0 -0 0 0 0 0 0 0 0 0 0 0 0 0 0 0 0 0 0 0 0 0 0 0 0
Wind_Speed_500mb
29 30 28 26 27 27 27 27 31 26 18 17 18 17 16 12 12 9 5 7 8 9 10 14 16 23 18 21 23 23 23 25
28 26 24 25 26 27 26 28 32 32 23 22 20 19 20 16 9 12 10 9 13 14 15 18 21 23 24 22 24 26 29 30
23 22 22 24 25 26 24 27 32 27 31 23 23 23 19 20 17 18 17 16 18 18 22 25 27 30 31 32 36 41 33 36
19 22 24 23 22 22 23 28 33 34 34 33 27 27 30 28 29 24 24 20 23 26 30 34 36 39 51 44 46 45 43 39
17 15 19 16 17 20 25 28 35 37 40 41 40 46 36 41 33 28 30 33 37 41 44 38 40 45 47 49 46 46 56 55
11 12 14 11 12 19 26 25 33 31 33 40 40 45 32 26 37 36 37 38 36 40 41 36 35 38 41 43 47 51 51 53
9 9 10 12 15 13 8 13 15 20 20 25 27 29 19 19 25 28 33 34 33 38 28 31 36 39 45 51 52 49 51 46
6 6 8 6 5 6 10 14 12 7 7 10 10 11 12 14 15 17 23 25 30 29 25 28 30 33 37 42 43 43 49 50
7 2 5 7 8 9 17 23 25 18 10 7 10 10 7 6 12 20 23 19 16 15 16 22 27 29 35 32 36 40 41 45
13 13 12 14 13 17 23 26 19 17 9 7 9 10 8 11 16 11 9 13 14 13 22 19 26 28 32 31 36 44 47 49
17 17 18 18 16 18 21 17 11 10 9 2 2 2 4 2 2 2 9 16 16 18 24 26 27 29 34 38 37 40 49 51
20 20 20 16 15 16 16 10 5 3 8 1 7 4 4 7 4 3 7 16 17 17 26 30 29 36 30 34 36 39 42 50
23 20 19 17 15 13 11 7 4 3 3 5 7 11 6 2 2 7 11 17 16 16 23 28 36 27 29 33 35 37 39 42
24 20 16 14 14 12 10 8 3 2 4 13 13 5 1 2 4 4 9 13 17 20 31 31 27 28 31 35 37 36 36 37
22 18 14 15 14 12 10 8 7 13 15 10 6 5 4 4 7 10 15 11 16 19 34 29 26 31 33 34 34 34 34 35
22 16 13 13 14 13 12 11 13 13 11 6 4 12 6 10 17 17 9 12 17 27 26 27 31 30 30 34 30 30 30 29
22 16 16 16 15 15 13 13 12 9 4 1 11 16 14 18 27 19 16 22 22 21 25 24 26 25 28 31 29 29 27 25
26 19 20 19 18 15 14 11 8 4 5 8 9 13 17 22 12 16 22 27 27 24 25 21 24 24 23 27 27 26 25 23
23 19 21 21 18 15 14 11 9 9 10 13 14 12 19 17 16 19 23 28 27 26 24 24 24 25 24 25 24 24 25 23
22 20 22 21 17 14 11 14 15 15 16 15 15 22 28 19 18 23 26 25 26 26 25 25 26 26 26 25 25 25 27 27
Wind_Direction_500mb
193 198 195 193 195 200 202 212 207 197 199 203 193 193 201 206 206 193 224 229 275 289 297 307 305 304 317 302 308 306 289 295
204 204 200 197 199 206 206 207 221 202 208 207 207 208 209 204 221 236 242 280 281 285 287 287 297 305 297 304 296 295 291 289
210 204 202 203 206 210 208 208 226 218 213 213 208 215 229 232 232 259 262 261 279 282 281 286 288 293 288 278 289 280 285 285
197 201 203 206 213 218 217 224 232 229 229 221 236 237 237 240 246 247 266 271 277 282 288 289 289 285 278 283 283 281 275 275
193 200 204 216 231 235 245 245 242 241 247 247 240 239 240 248 241 251 261 275 280 285 286 290 289 287 290 286 280 278 276 274
182 193 204 230 249 265 269 244 239 238 249 254 255 245 249 250 245 253 266 281 285 293 283 284 282 294 303 296 291 284 282 279
180 204 231 251 274 266 243 189 209 232 257 264 260 260 242 237 251 261 281 282 293 296 289 297 300 303 301 297 297 292 288 283
188 239 241 248 206 196 164 152 163 160 240 255 225 182 206 254 267 291 297 293 299 301 306 305 308 309 305 304 306 301 296 289
129 170 139 133 155 160 142 135 127 118 106 138 187 189 199 222 285 291 301 305 314 329 321 318 322 321 317 321 317 312 303 299
124 108 115 123 124 130 136 142 121 99 86 143 169 182 214 284 308 304 309 326 332 337 324 333 319 325 319 313 318 313 304 302
133 116 116 119 114 122 136 136 119 86 47 82 145 223 281 108 82 9 326 325 331 331 327 327 327 330 316 319 315 315 309 303
136 127 118 125 122 130 141 155 180 343 17 222 212 213 125 159 141 289 319 328 328 330 332 330 332 332 321 320 317 317 313 306
139 132 127 133 138 145 157 170 228 298 276 156 113 134 112 115 331 340 326 329 341 340 341 335 331 336 325 324 324 319 322 314
139 138 138 143 143 149 153 160 219 206 147 128 132 116 98 212 274 322 326 332 329 322 336 337 338 334 329 333 326 327 323 322
145 144 144 136 146 156 153 150 143 135 130 126 113 60 19 354 360 321 342 328 321 318 336 336 340 336 336 332 330 335 328 320
143 143 140 148 155 157 151 148 144 139 140 126 30 360 341 336 325 325 327 333 328 324 334 335 337 339 336 339 340 331 327 327
132 147 150 149 153 156 157 154 151 145 141 289 305 312 312 311 323 333 327 336 322 316 330 330 331 328 335 342 340 335 326 332
143 156 152 150 148 157 155 162 175 201 242 266 279 304 319 323 313 320 324 330 328 324 326 323 325 321 324 329 336 331 332 329
155 150 158 163 165 166 182 191 223 257 263 269 286 291 316 312 299 308 317 321 323 321 322 321 322 321 320 320 327 330 323 323
155 153 161 168 175 183 207 229 246 264 265 262 276 296 318 306 296 302 310 313 320 319 315 317 319 319 318 317 319 317 317 311
Wind_Speed_850mb
29 30 28 26 27 27 27 27 31 26 18 17 18 17 16 12 12 9 5 7 8 9 10 14 16 23 18 21 23 23 23 25
28 26 24 25 26 27 26 28 32 32 23 22 20 19 20 16 9 12 10 9 13 14 15 18 21 23 24 22 24 26 29 30
23 22 22 24 25 26 24 27 32 27 31 23 23 23 19 20 17 18 17 16 18 18 22 25 27 30 31 32 36 41 33 36
19 22 24 23 22 22 23 28 33 34 34 33 27 27 30 28 29 24 24 20 23 26 30 34 36 39 51 44 46 45 43 39
17 15 19 16 17 20 25 28 35 37 40 41 40 46 36 41 33 28 30 33 37 41 44 38 40 45 47 49 46 46 56 55
11 12 14 11 12 19 26 25 33 31 33 40 40 45 32 26 37 36 37 38 36 40 41 36 35 38 41 43 47 51 51 53
9 9 10 12 15 13 8 13 15 20 20 25 27 29 19 19 25 28 33 34 33 38 28 31 36 39 45 51 52 49 51 46
6 6 8 6 5 6 10 14 12 7 7 10 10 11 12 14 15 17 23 25 30 29 25 28 30 33 37 42 43 43 49 50
7 2 5 7 8 9 17 23 25 18 10 7 10 10 7 6 12 20 23 19 16 15 16 22 27 29 35 32 36 40 41 45
13 13 12 14 13 17 23 26 19 17 9 7 9 10 8 11 16 11 9 13 14 13 22 19 26 28 32 31 36 44 47 49
17 17 18 18 16 18 21 17 11 10 9 2 2 2 4 2 2 2 9 16 16 18 24 26 27 29 34 38 37 40 49 51
20 20 20 16 15 16 16 10 5 3 8 1 7 4 4 7 4 3 7 16 17 17 26 30 29 36 30 34 36 39 42 50
23 20 19 17 15 13 11 7 4 3 3 5 7 11 6 2 2 7 11 17 16 16 23 28 36 27 29 33 35 37 39 42
24 20 16 14 14 12 10 8 3 2 4 13 13 5 1 2 4 4 9 13 17 20 31 31 27 28 31 35 37 36 36 37
22 18 14 15 14 12 10 8 7 13 15 10 6 5 4 4 7 10 15 11 16 19 34 29 26 31 33 34 34 34 34 35
22 16 13 13 14 13 12 11 13 13 11 6 4 12 6 10 17 17 9 12 17 27 26 27 31 30 30 34 30 30 30 29
22 16 16 16 15 15 13 13 12 9 4 1 11 16 14 18 27 19 16 22 22 21 25 24 26 25 28 31 29 29 27 25
26 19 20 19 18 15 14 11 8 4 5 8 9 13 17 22 12 16 22 27 27 24 25 21 24 24 23 27 27 26 25 23
23 19 21 21 18 15 14 11 9 9 10 13 14 12 19 17 16 19 23 28 27 26 24 24 24 25 24 25 24 24 25 23
22 20 22 21 17 14 11 14 15 15 16 15 15 22 28 19 18 23 26 25 26 26 25 25 26 26 26 25 25 25 27 27
Wind_Direction_850mb
193 198 195 193 195 200 202 212 207 197 199 203 193 193 201 206 206 193 224 229 275 289 297 307 305 304 317 302 308 306 289 295
204 204 200 197 199 206 206 207 221 202 208 207 207 208 209 204 221 236 242 280 281 285 287 287 297 305 297 304 296 295 291 289
210 204 202 203 206 210 208 208 226 218 213 213 208 215 229 232 232 259 262 261 279 282 281 286 288 293 288 278 289 280 285 285
197 201 203 206 213 218 217 224 232 229 229 221 236 237 237 240 246 247 266 271 277 282 288 289 289 285 278 283 283 281 275 275
193 200 204 216 231 235 245 245 242 241 247 247 240 239 240 248 241 251 261 275 280 285 286 290 289 287 290 286 280 278 276 274
182 193 204 230 249 265 269 244 239 238 249 254 255 245 249 250 245 253 266 281 285 293 283 284 282 294 303 296 291 284 282 279
180 204 231 251 274 266 243 189 209 232 257 264 260 260 242 237 251 261 281 282 293 296 289 297 300 303 301 297 297 292 288 283
188 239 241 248 206 196 164 152 163 160 240 255 225 182 206 254 267 291 297 293 299 301 306 305 308 309 305 304 306 301 296 289
129 170 139 133 155 160 142 135 127 118 106 138 187 189 199 222 285 291 301 305 314 329 321 318 322 321 317 321 317 312 303 299
124 108 115 123 124 130 136 142 121 99 86 143 169 182 214 284 308 304 309 326 332 337 324 333 319 325 319 313 318 313 304 302
133 116 116 119 114 122 136 136 119 86 47 82 145 223 281 108 82 9 326 325 331 331 327 327 327 330 316 319 315 315 309 303
136 127 118 125 122 130 141 155 180 343 17 222 212 213 125 159 141 289 319 328 328 330 332 330 332 332 321 320 317 317 313 306
139 132 127 133 138 145 157 170 228 298 276 156 113 134 112 115 331 340 326 329 341 340 341 335 331 336 325 324 324 319 322 314
139 138 138 143 143 149 153 160 219 206 147 128 132 116 98 212 274 322 326 332 329 322 336 337 338 334 329 333 326 327 323 322
145 144 144 136 146 156 153 150 143 135 130 126 113 60 19 354 360 321 342 328 321 318 336 336 340 336 336 332 330 335 328 320
143 143 140 148 155 157 151 148 144 139 140 126 30 360 341 336 325 325 327 333 328 324 334 335 337 339 336 339 340 331 327 327
132 147 150 149 153 156 157 154 151 145 141 289 305 312 312 311 323 333 327 336 322 316 330 330 331 328 335 342 340 335 326 332
143 156 152 150 148 157 155 162 175 201 242 266 279 304 319 323 313 320 324 330 328 324 326 323 325 321 324 329 336 331 332 329
155 150 158 163 165 166 182 191 223 257 263 269 286 291 316 312 299 308 317 321 323 321 322 321 322 321 320 320 327 330 323 323
155 153 161 168 175 183 207 229 246 264 265 262 276 296 318 306 296 302 310 313 320 319 315 317 319 319 318 317 319 317 317 311